Clarion, IA

4:51 PM CDT on April 25, 2017 (GMT -0500)
Clarion Municipal

Weather History for KCAV - August, 2014

Change the Weather History Date:

Thursday, August 21, 2014

  Actual Average Record
Temperature  
Mean Temperature 78 °F -  
Max Temperature 87 °F 80 °F 97 °F (1955)
Min Temperature 69 °F 58 °F 39 °F (2004)
Cooling Degree Days 13    
Growing Degree Days 28 (Base 50)    
Moisture  
Dew Point 72 °F    
Average Humidity 86    
Maximum Humidity 100    
Minimum Humidity 58    
Precipitation  
Precipitation 0.00 in - - ()
Sea Level Pressure  
Sea Level Pressure 29.84 in    
Wind  
Wind Speed 10 mph (South)    
Max Wind Speed 18 mph    
Max Gust Speed 25 mph    
Visibility 10 miles    
Events      
Averages and records for this station are not official NWS values.
T = Trace of Precipitation, MM = Missing Value Source: NWS Daily Summary

Daily Weather History Graph

Daily Weather History Graph

Search for Another Location

Airport or City:

Trip Planner

Search our weather history database for the weather conditions in past years. The results will help you decide how hot, cold, wet, or windy it might be!

Date:

Astronomy

Aug. 21, 2014 Rise Set
Actual Time 6:27 AM CDT 8:07 PM CDT
Civil Twilight 5:57 AM CDT 8:37 PM CDT
Nautical Twilight 5:21 AM CDT 9:13 PM CDT
Astronomical Twilight 4:42 AM CDT 9:52 PM CDT
Moon 2:56 AM CDT (8/21) 5:38 PM CDT (8/21)
Length of Visible Light 14h 39m
Length of Day
13h 39m
Waning Crescent, 13% of the Moon is Illuminated
Aug 21
Waning Crescent
Aug 25
New
Sep 2
First Quarter
Sep 8
Full
Sep 15
Last Quarter

Hourly Weather History & Observations

Time (CDT) Temp. Heat Index Dew Point Humidity Pressure Visibility Wind Dir Wind Speed Gust Speed Precip Events Conditions
12:15 AM 69.8 °F - 69.8 °F 100% 29.86 in 10.0 mi ESE 8.1 mph 13.8 mph N/A   Clear
12:35 AM 69.8 °F - 69.8 °F 100% 29.85 in 10.0 mi ESE 11.5 mph - N/A   Clear
12:55 AM 69.8 °F - 69.8 °F 100% 29.85 in 10.0 mi ESE 10.4 mph - N/A   Clear
1:15 AM 69.8 °F - 69.8 °F 100% 29.85 in 10.0 mi SE 11.5 mph - N/A   Clear
1:35 AM 69.8 °F - 69.8 °F 100% 29.84 in 10.0 mi SE 10.4 mph - N/A   Partly Cloudy
1:55 AM 69.8 °F - 69.8 °F 100% 29.84 in 10.0 mi SE 10.4 mph - N/A   Mostly Cloudy
2:15 AM 69.8 °F - 69.8 °F 100% 29.83 in 10.0 mi SE 11.5 mph - N/A   Overcast
2:35 AM 71.6 °F - 71.6 °F 100% 29.82 in 10.0 mi SE 11.5 mph 18.4 mph N/A   Mostly Cloudy
2:55 AM 71.6 °F - 71.6 °F 100% 29.82 in - SE 11.5 mph 17.3 mph N/A   Unknown
3:15 AM 71.6 °F - 71.6 °F 100% 29.81 in 10.0 mi SE 11.5 mph - N/A   Clear
3:35 AM 71.6 °F - 71.6 °F 100% 29.81 in 10.0 mi SE 10.4 mph - N/A   Clear
3:55 AM 71.6 °F - 71.6 °F 100% 29.80 in 10.0 mi SSE 9.2 mph - N/A   Clear
4:15 AM 71.6 °F - 71.6 °F 100% 29.78 in 10.0 mi SSE 12.7 mph - N/A   Partly Cloudy
4:35 AM 73.4 °F - 73.4 °F 100% 29.78 in 10.0 mi SSE 10.4 mph - N/A   Scattered Clouds
4:55 AM 73.4 °F - 73.4 °F 100% 29.79 in 10.0 mi South 10.4 mph 17.3 mph N/A   Scattered Clouds
5:15 AM 73.4 °F - 73.4 °F 100% 29.78 in 10.0 mi South 10.4 mph 18.4 mph N/A   Clear
5:35 AM 73.4 °F - 73.4 °F 100% 29.76 in 10.0 mi SSE 9.2 mph - N/A   Clear
5:55 AM 73.4 °F - 73.4 °F 100% 29.77 in 10.0 mi South 10.4 mph - N/A   Clear
6:15 AM 73.4 °F - 71.6 °F 94% 29.78 in 10.0 mi South 10.4 mph - N/A   Partly Cloudy
6:35 AM 73.4 °F - 71.6 °F 94% 29.78 in 10.0 mi South 11.5 mph - N/A   Mostly Cloudy
6:55 AM 73.4 °F - 71.6 °F 94% 29.80 in 10.0 mi South 9.2 mph - N/A   Mostly Cloudy
7:15 AM 73.4 °F - 71.6 °F 94% 29.81 in 10.0 mi South 6.9 mph - N/A   Mostly Cloudy
7:35 AM 73.4 °F - 71.6 °F 94% 29.81 in 10.0 mi SSW 8.1 mph - N/A   Partly Cloudy
7:55 AM 73.4 °F - 71.6 °F 94% 29.83 in 10.0 mi SSW 4.6 mph - N/A   Mostly Cloudy
8:15 AM 73.4 °F - 71.6 °F 94% 29.85 in 10.0 mi Calm Calm - N/A   Mostly Cloudy
8:55 AM 75.2 °F - 71.6 °F 89% 29.87 in 10.0 mi Calm Calm - N/A   Scattered Clouds
9:15 AM 73.4 °F - 71.6 °F 94% 29.88 in 10.0 mi SSE 4.6 mph - N/A   Partly Cloudy
9:35 AM 73.4 °F - 71.6 °F 94% 29.89 in 10.0 mi South 6.9 mph - N/A   Partly Cloudy
9:55 AM 75.2 °F - 71.6 °F 89% 29.87 in 10.0 mi ESE 5.8 mph - N/A   Clear
10:15 AM 75.2 °F - 71.6 °F 89% 29.87 in 10.0 mi ESE 5.8 mph - N/A   Partly Cloudy
10:35 AM 73.4 °F - 71.6 °F 94% 29.88 in 10.0 mi SE 6.9 mph - N/A   Partly Cloudy
10:55 AM 75.2 °F - 73.4 °F 94% 29.85 in 10.0 mi ESE 8.1 mph - N/A   Clear
11:15 AM 75.2 °F - 71.6 °F 89% 29.83 in 10.0 mi SE 8.1 mph - N/A   Clear
11:35 AM 78.8 °F - 73.4 °F 83% 29.84 in 10.0 mi SSE 11.5 mph - N/A   Clear
12:15 PM 80.6 °F 84.6 °F 71.6 °F 74% 29.84 in 10.0 mi South 12.7 mph - N/A   Partly Cloudy
12:35 PM 82.4 °F 87.2 °F 71.6 °F 70% 29.84 in 10.0 mi SSW 11.5 mph - N/A   Clear
12:55 PM 80.6 °F 84.6 °F 71.6 °F 74% 29.83 in 10.0 mi South 10.4 mph - N/A   Scattered Clouds
1:15 PM 84.2 °F 89.6 °F 71.6 °F 66% 29.83 in 10.0 mi South 16.1 mph - N/A   Partly Cloudy
1:35 PM 84.2 °F 89.6 °F 71.6 °F 66% 29.83 in 10.0 mi South 17.3 mph - N/A   Clear
1:55 PM 86.0 °F 91.8 °F 71.6 °F 62% 29.82 in 10.0 mi South 18.4 mph - N/A   Clear
2:15 PM 86.0 °F 91.8 °F 71.6 °F 62% 29.82 in 10.0 mi South 18.4 mph 25.3 mph N/A   Clear
2:35 PM 87.8 °F 93.8 °F 71.6 °F 58% 29.81 in 10.0 mi South 16.1 mph 23.0 mph N/A   Clear
2:55 PM 86.0 °F 91.8 °F 71.6 °F 62% 29.81 in 10.0 mi South 18.4 mph 25.3 mph N/A   Clear
3:15 PM 87.8 °F 95.6 °F 73.4 °F 62% 29.81 in 10.0 mi South 16.1 mph - N/A   Clear
3:35 PM 87.8 °F 93.8 °F 71.6 °F 58% 29.82 in 10.0 mi SSW 17.3 mph - N/A   Clear
3:55 PM 87.8 °F 93.8 °F 71.6 °F 58% 29.82 in 10.0 mi SSW 16.1 mph 21.9 mph N/A   Clear
4:15 PM 87.8 °F 93.8 °F 71.6 °F 58% 29.82 in 10.0 mi SSW 15.0 mph 23.0 mph N/A   Clear
4:35 PM 87.8 °F 95.6 °F 73.4 °F 62% 29.83 in 10.0 mi SW 15.0 mph 24.2 mph N/A   Partly Cloudy
4:55 PM 87.8 °F 93.8 °F 71.6 °F 58% 29.84 in 10.0 mi SW 13.8 mph 19.6 mph N/A   Partly Cloudy
5:15 PM 84.2 °F 89.6 °F 71.6 °F 66% 29.84 in 10.0 mi SW 15.0 mph 20.7 mph N/A   Partly Cloudy
5:35 PM 86.0 °F 93.4 °F 73.4 °F 66% 29.85 in 10.0 mi SSW 15.0 mph 21.9 mph N/A   Partly Cloudy
5:55 PM 86.0 °F 93.4 °F 73.4 °F 66% 29.86 in 10.0 mi SW 11.5 mph 18.4 mph N/A   Mostly Cloudy
6:15 PM 84.2 °F 90.9 °F 73.4 °F 70% 29.86 in 10.0 mi SW 11.5 mph - N/A   Mostly Cloudy
6:35 PM 84.2 °F 92.3 °F 75.2 °F 74% 29.86 in 10.0 mi SSW 10.4 mph - N/A   Scattered Clouds
6:55 PM 84.2 °F 92.3 °F 75.2 °F 74% 29.86 in 10.0 mi SSW 6.9 mph - N/A   Partly Cloudy
7:15 PM 82.4 °F 89.5 °F 75.2 °F 79% 29.86 in 10.0 mi SSW 9.2 mph - N/A   Clear
7:35 PM 82.4 °F 89.5 °F 75.2 °F 79% 29.86 in 10.0 mi SSW 8.1 mph - N/A   Clear
7:55 PM 78.8 °F - 75.2 °F 89% 29.85 in 10.0 mi SSW 6.9 mph - N/A   Clear
8:15 PM 77.0 °F - 75.2 °F 94% 29.86 in 10.0 mi SSW 5.8 mph - N/A   Clear
8:35 PM 77.0 °F - 73.4 °F 89% 29.87 in 10.0 mi SSW 5.8 mph - N/A   Clear
8:55 PM 75.2 °F - 73.4 °F 94% 29.88 in 10.0 mi South 5.8 mph - N/A   Clear
9:15 PM 75.2 °F - 73.4 °F 94% 29.87 in 10.0 mi South 6.9 mph - N/A   Clear
9:35 PM 75.2 °F - 73.4 °F 94% 29.87 in 10.0 mi South 6.9 mph - N/A   Clear
9:55 PM 75.2 °F - 73.4 °F 94% 29.88 in 10.0 mi South 3.5 mph - N/A   Clear
10:15 PM 75.2 °F - 73.4 °F 94% 29.87 in 10.0 mi South 8.1 mph - N/A   Clear
10:35 PM 75.2 °F - 73.4 °F 94% 29.88 in 10.0 mi South 6.9 mph - N/A   Clear
11:15 PM 73.4 °F - 73.4 °F 100% 29.88 in 10.0 mi South 5.8 mph - N/A   Clear
11:35 PM 73.4 °F - 73.4 °F 100% 29.88 in 10.0 mi SSE 4.6 mph - N/A   Clear
11:55 PM 73.4 °F - 73.4 °F 100% 29.88 in 10.0 mi South 6.9 mph - N/A   Clear